Location: Newark
(44.3681°N, 100.3364°W)
Time: 14:15:09
(UTC+00:00)

Explorer 7 - Pass Details

Date: 24 February 2020
Orbit: 485 x 679 km, 50.3° (Epoch: 05 April)

Event Time Altitude Azimuth Distance (km) Brightness Sun altitude
Rises 19:41:46 0° 268° (W) 2,949 10.7 35.1°
Reaches altitude 10° 19:44:15 10° 275° (W) 2,011 9.9 35.0°
Maximum altitude 19:48:40 43° 348° (NNW) 852 7.8 34.8°
Drops below altitude 10° 19:52:50 10° 61° (ENE) 1,896 9.3 34.6°
Sets 19:55:07 0° 68° (ENE) 2,760 10.1 34.5°
